Current weather by "City, St" or "zip code"  
 
Advertise Here

Current Conditions: Robinson Municipal Airport, IL

Overcast


30.0 F

Last Updated on Jan 18 2021, 2:55 am CST
Humidity: 86%
Wind Speed: N 0.0 mph
Barometer 29.91 in
Dewpoint: 26.1 F
Visibility: 10.00 mi
Precip: --
Heat Index: NA
Wind Chill: NA
Current conditions at:

Robinson Municipal Airport, IL (KRSV)

Lat: 39.01361 Lon: 87.64846

Local Radar Image active severe weather and emergency alerts image image weather storm and storm spotter reports image weather observation monitoring service image
Local
Radar
Active
Alerts
Storm Reports Obs
Monitoring

Sign-up For Email & Text Message Weather Alert Notification Services


Advertise Here

Observation History for Robinson Municipal Airport, IL


Time Wind
(mph)
Vis
(mi)
Weather Precip (in) Temperature (F) Relative
Humidity
Wind
Chill
(F)
Heat
Index
(F)
Pressure
Air Dwpt altimeter
(in)
sea level
(mb)
Rmks
2:55 am CST N 0.0 10.00 Overcast -- 30.0 26.1 86% NA NA 29.91 M
1:55 am CST N 0.0 10.00 Overcast -- 29.0 25.5 88% NA NA 29.90 M
12:55 am CST W 4.6 10.00 Mostly Cloudy -- 24.0 21.7 91% 18 NA 29.88 M
11:55 pm CST W 8.1 10.00 Mostly Cloudy -- 29.0 25.0 85% 21 NA 29.88 M
10:55 pm CST W 9.2 10.00 Overcast -- 30.0 26.2 85% 22 NA 29.87 M
9:55 pm CST W 6.9 10.00 Overcast -- 30.0 26.6 86% 23 NA 29.86 M
8:55 pm CST W 8.1 10.00 Overcast -- 30.0 26.6 87% 22 NA 29.86 M
7:55 pm CST W 8.1 10.00 Overcast -- 30.0 27.3 90% 22 NA 29.86 M
6:55 pm CST W 9.2 10.00 Overcast -- 30.0 26.4 87% 22 NA 29.86 M
5:55 pm CST W 9.2 10.00 Light Snow -- 30.0 26.4 86% 22 NA 29.85 M
4:55 pm CST W 10.4 10.00 Overcast -- 30.0 26.4 86% 21 NA 29.84 M
3:55 pm CST W 12.7 4.00 Light Snow -- 31.0 27.3 86% 21 NA 29.82 M
2:55 pm CST W 10.4 10.00 Overcast -- 32.0 26.2 79% 24 NA 29.80 M
1:55 pm CST NW 16.1 7.00 Light Snow -- 32.0 28.0 85% 21 NA 29.78 M
12:55 pm CST W 15.0 G 18.4 10.00 Overcast -- 32.0 27.9 84% 22 NA 29.78 M
12:35 pm CST W 13.8 7.00 Overcast -- 33.0 29.8 87% 23 NA 29.78 M
11:55 am CST W 11.5 3.00 Light Snow -- 32.0 30.6 94% 23 NA 29.79 M
10:55 am CST W 6.9 2.50 Fog/Mist -- 32.0 31.1 98% 26 NA 29.81 M
9:55 am CST W 4.6 7.00 Overcast -- 32.0 29.8 93% 27 NA 29.83 M
8:55 am CST W 9.2 7.00 Overcast -- 32.0 30.2 94% 24 NA 29.82 M
7:55 am CST W 8.1 4.00 Light Snow -- 31.0 30.6 96% 24 NA 29.81 M
6:55 am CST SW 5.8 7.00 Overcast -- 32.0 30.6 95% 26 NA 29.81 M
5:55 am CST SW 4.6 7.00 Overcast -- 32.0 30.7 96% 27 NA 29.81 M
4:55 am CST W 4.6 4.00 Light Snow -- 32.0 31.1 97% 27 NA 29.80 M

Regional Weather Observation


Terre Haute Regional Airport, IN (KHUF)

Overcast
29.0 F

Edgar County Airport, IL (KPRG)

Overcast
28.0 F

Mattoon / Charleston, Coles County Memorial Airport, IL (KMTO)

Overcast
30.0 F

Effingham, Effingham County Memorial Airport, IL (K1H2)

Overcast
31.0 F

Lawrenceville-Vincennes International Airport, IL (KLWV)

Overcast
30.0 F

Mount Carmel, Mount Carmel Municipal Airport, IL (KAJG)

Overcast
31.0 F